METEOSAT 7
1 24932U 97049B   03058.89532175 -.00000019  00000-0  00000+0 0  2550
2 24932   0.2424  73.4343 0001886 223.2414 183.5527  1.00269814 20115
ASTRA 1G
1 25071U 97076A   03057.00000000  .00000104  00000-0  10000-3 0  3936
2 25071   0.0122 319.8851 0002995  65.1991 149.5199  1.00273184 19210
INMARSAT 3-F5
1 25153U 98006B   03058.80382243  .00000123  00000-0  10000-3 0  8512
2 25153   0.4663 353.6531 0002981 340.4203 137.5347  1.00275494 18594
HOT BIRD 4
1 25237U 98013A   03055.98151369  .00000074  00000-0  10000-3 0  3309
2 25237   0.0547 293.1775 0007524 338.0934 249.5459  1.00273950 18609
NOAA 15
1 25338U 98030A   03061.82217802  .00000087  00000-0  56261-4 0   250
2 25338  98.5489  83.6398 0009633 284.0806  75.9302 14.24248972249545
RESURS O1-N4
1 25394U 98043A   03062.56568355  .00000052  00000-0  41578-4 0  4611
2 25394  98.6301 140.2533 0002425  78.1902 281.9549 14.23881189241381
TMSAT
1 25396U 98043C   03060.85227016 -.00000043  00000-0  00000+0 0  8276
2 25396  98.6235 137.7318 0003618  98.8854 261.2734 14.23514837241134
TECHSAT 1B
1 25397U 98043D   03058.97994936 +.00000024 +00000-0 +29908-4 0 01464
2 25397 098.6209 134.7707 0002142 108.6861 251.4551 14.22961639240833
ASTRA 2A
1 25462U 98050A   03058.24227095  .00000000  00000-0  10000-3 0  5358
2 25462   0.0563 284.0808 0004996  69.9559 278.0076  1.00271461 16522
EUTELSAT W2
1 25491U 98056A   03058.05225223  .00000000  00000-0  10000-3 0  5828
2 25491   0.0201 271.7959 0057429 107.2037 171.6734  1.00271849 16135
HOT BIRD 5
1 25495U 98057A   03056.80000000  .00000127  00000-0  00000+0 0  5014
2 25495   0.0420 122.5750 0014253 241.1950 108.9370  1.00127617 16091
SEDSAT 1
1 25509U 98061B   03062.17096330  .00000452  00000-0  81087-4 0  7925
2 25509  31.4310  81.9933 0356797  52.9372 310.3406 14.27448066227115
PAN SAT
1 25520U 98064B   03061.42544456  .00002117  00000-0  10353-3 0  6437
2 25520  28.4629 144.8845 0005944 119.8608 240.2577 15.13932928239381
ISS (ZARYA)
1 25544U 98067A   03062.53351377  .00026405  00000-0  33671-3 0  7443
2 25544  51.6325 190.8972 0011899 270.4966 168.1020 15.59032764244529
ORSTED
1 25635U 99008B   03061.50890331  .00000556  00000-0  14899-3 0  8445
2 25635  96.4528  44.8857 0144000 291.6673  66.9240 14.44861227211668
SUNSAT
1 25636U 99008C   03059.56395600  .00000311  00000-0  89876-4 0  6678
2 25636  96.4553  42.0424 0148146 304.4324  54.2943 14.42964474211259
UOSAT 12
1 25693U 99021A   03062.21678642  .00000303  00000-0  63206-4 0  7549
2 25693  64.5615 332.0732 0021748 315.5987  44.3385 14.76402034208125
FENGYUN 1C
1 25730U 99025A   03061.84350974 -.00000067  00000-0 -13521-4 0  7799
2 25730  98.6338  85.7827 0014045 331.3541  28.6858 14.11734211196364
ASTRA 1H
1 25785U 99033A   03057.00000000  .00000104  00000-0  10000-3 0  3731
2 25785   0.0122 319.8851 0002995  65.1991 149.5614  1.00273184 13577
TERRA
1 25994U 99068A   03062.42839915  .00000571  00000-0  13661-3 0  7477
2 25994  98.1954 138.4481 0000702  98.2041 261.9239 14.57144404170542
JAWSAT
1 26061U 00004A   03062.24394613  .00000336  00000-0  13025-3 0  7783
2 26061 100.2031 121.6621 0034820 243.1838 116.5781 14.37836755162354
OPAL
1 26063U 00004C   03062.17110758  .00000069  00000-0  44460-4 0  7324
2 26063 100.2065 119.0329 0036699 251.5004 108.2182 14.35485391162192
ASUSAT
1 26065U 00004E   03062.19743317  .00000079  00000-0  47574-4 0  7466
2 26065 100.2098 119.2200 0036957 252.0938 107.6210 14.35513322162190
GOES 11
1 26352U 00022A   03061.50684602 -.00000049  00000-0  10000-3 0   475
2 26352   0.1702 102.1927 0003260 207.3332 279.1438  1.00266384 10356
EUTELSAT W4
1 26369U 00028A   03056.75615172  .00000140  00000-0  00000+0 0  3554
2 26369   0.0374  10.0316 0003506 335.6383 117.8134  1.00274569 10121
FENGYUN 2B
1 26382U 00032A   03062.22690641 -.00000344  00000-0  00000+0 0  8043
2 26382   0.5390 287.9954 0002204 190.6933 228.0471  1.00270798  9831
EUTELSAT W1
1 26487U 00052A   03062.03640626  .00000052  00000-0  10000-3 0  3627
2 26487   0.0266 289.8625 0004066  60.9887 192.5708  1.00273438  9141
ASTRA 2B
1 26494U 00054A   03057.00000000  .00000134  00000-0  00000+0 0  2562
2 26494   0.0178 354.5658 0005000 302.8402 246.1704  1.00276704  8990
NOAA 16
1 26536U 00055A   03061.48728799  .00000361  00000-0  22207-3 0  2298
2 26536  98.9034   9.6816 0009825 274.2853  85.7200 14.11911140125836
SAUDISAT 1A
1 26545U 00057A   03062.25777681  .00001125  00000-0  16798-3 0  4198
2 26545  64.5605 352.9224 0051308 236.7330 122.8842 14.79010653131095
UNISAT
1 26547U 00057C   03061.89961433  .00001709  00000-0  23914-3 0  4386
2 26547  64.5590 356.2083 0058388 238.7805 120.7577 14.79792935131018
TIUNGSAT 1
1 26548U 00057D   03061.78806828  .00001504  00000-0  20759-3 0  4221
2 26548  64.5592 347.1194 0044627 236.0573 123.6315 14.81307163131174
SAUDISAT 1B
1 26549U 00057E   03062.30298514  .00000778  00000-0  12478-3 0  7064
2 26549  64.5526 356.9627 0055697 236.7299 122.8464 14.77944848131024
AMSAT OSCAR 40
1 26609U 00072B   03062.14261750 -.00000314  00000-0  10000-3 0  3132
2 26609   8.2009  61.8922 7947545 149.3793 302.8222  1.25596061 10734
GOES 12
1 26871U 01031A   03059.57649229 -.00000204  00000-0  10000-3 0  8439
2 26871   0.3031 276.6038 0002337  24.0593 333.5659  1.00359880  5938
PCSAT
1 26931U 01043C   03062.54224013  .00000086  00000-0  66627-4 0  4159
2 26931  67.0469 222.2134 0005131 268.9508  91.1001 14.29120477 74201
SAPPHIRE
1 26932U 01043D   03061.53902036  .00000030  00000-0  44353-4 0  4090
2 26932  67.0534 224.4980 0004523 244.8118 115.2513 14.29297528 74086
ENVISAT
1 27386U 02009A   03062.18977137  .00000066  00000-0  40672-4 0  9648
2 27386  98.5512 130.5575 0001035  91.5314 268.5988 14.32249876 52555
IDEFIX/ARIANE 42P
1 27422U 02021B   03061.86453350  .00000100  00000-0  58316-4 0  2458
2 27422  98.6936 141.0084 0013376 112.5473 247.7124 14.27974636 43217
FENGYUN 1D
1 27431U 02024B   03062.51715560  .00000088  00000-0  75195-4 0  2288
2 27431  98.7655 111.1496 0016264  88.3067 271.9966 14.09180882 41199
NOAA 17
1 27453U 02032A   03061.79764616  .00000182  00000-0  99884-4 0  3238
2 27453  98.7540 132.9434 0011179 325.3274  34.7173 14.23299628 35703
HOT BIRD 6
1 27499U 02038A   03054.87288413  .00000075  00000-0  10000-3 0   703
2 27499   0.0150 173.7812 0009015 197.5701 109.1063  1.00270140  1885
RUBIN 2
1 27605U 02058A   03062.22189933  .00000381  00000-0  82447-4 0   726
2 27605  64.5539 158.8175 0035805 108.5682 251.9319 14.71388119 10677
